JAL305 RJTT-RJFF

Flight info

Callsign JAL305
Flight time N/A
Altitude 40000
Route GUSRO Y20 KIRIN
Aircraft A359/H-SDE2E3GHIJ3J4J5LM1ORWXY/LB1D1

Departure

Time 2026-05-07 12:34
Airport Tokyo Haneda International Airport (RJTT)

Arrival

Time N/A
Airport Fukuoka Airport (RJFF)
Time Latitude Longitude Altitude Speed Heading
2026-05-07 12:07 35.54658 139.78443 28 ft 0 kts 60°
2026-05-07 12:21 35.54657 139.78441 29 ft 2 kts 60°
2026-05-07 12:21 35.54645 139.78415 29 ft 4 kts 60°
2026-05-07 12:21 35.54631 139.78386 27 ft 4 kts 60°
2026-05-07 12:21 35.54617 139.78358 27 ft 4 kts 60°
2026-05-07 12:22 35.54606 139.78334 27 ft 4 kts 54°
2026-05-07 12:22 35.54588 139.78312 29 ft 4 kts 19°
2026-05-07 12:22 35.54563 139.78311 29 ft 4 kts 340°
2026-05-07 12:22 35.54543 139.78322 29 ft 0 kts 330°
2026-05-07 12:27 35.54576 139.78298 30 ft 9 kts 330°
2026-05-07 12:28 35.54588 139.78231 29 ft 11 kts 253°
2026-05-07 12:28 35.54587 139.78151 26 ft 4 kts 317°
2026-05-07 12:28 35.54617 139.78138 28 ft 6 kts 337°
2026-05-07 12:28 35.54674 139.78102 28 ft 12 kts 332°
2026-05-07 12:29 35.54755 139.78045 28 ft 15 kts 329°
2026-05-07 12:29 35.54852 139.77975 28 ft 17 kts 329°
2026-05-07 12:29 35.54962 139.77898 28 ft 20 kts 330°
2026-05-07 12:29 35.55087 139.77808 28 ft 22 kts 329°
2026-05-07 12:30 35.55218 139.77715 28 ft 19 kts 329°
2026-05-07 12:30 35.55341 139.77629 28 ft 22 kts 330°
2026-05-07 12:30 35.55477 139.77531 29 ft 24 kts 329°
2026-05-07 12:30 35.55603 139.77443 28 ft 18 kts 329°
2026-05-07 12:31 35.55696 139.77376 28 ft 11 kts 330°
2026-05-07 12:31 35.55753 139.77314 28 ft 10 kts 288°
2026-05-07 12:31 35.55729 139.77244 28 ft 6 kts 224°
2026-05-07 12:31 35.55722 139.77238 28 ft 0 kts 219°
2026-05-07 12:32 35.55721 139.77237 28 ft 2 kts 218°
2026-05-07 12:32 35.55697 139.77215 29 ft 5 kts 216°
2026-05-07 12:32 35.55642 139.77179 31 ft 10 kts 191°
2026-05-07 12:33 35.55497 139.77261 29 ft 14 kts 150°
2026-05-07 12:33 35.55295 139.77405 28 ft 68 kts 150°
2026-05-07 12:33 35.54676 139.77845 28 ft 135 kts 150°
2026-05-07 12:34 35.53752 139.78514 411 ft 159 kts 153°
2026-05-07 12:34 35.52825 139.79217 1241 ft 154 kts 153°
2026-05-07 12:34 35.51927 139.79919 2027 ft 153 kts 155°
2026-05-07 12:34 35.50978 139.80579 2449 ft 168 kts 158°
2026-05-07 12:35 35.49858 139.81302 2719 ft 195 kts 157°
2026-05-07 12:35 35.48493 139.81644 3050 ft 206 kts 192°
2026-05-07 12:35 35.47214 139.80921 3675 ft 207 kts 225°
2026-05-07 12:35 35.46511 139.79393 4418 ft 212 kts 257°
2026-05-07 12:36 35.46640 139.77578 5152 ft 223 kts 288°
2026-05-07 12:36 35.47432 139.75897 5879 ft 237 kts 301°
2026-05-07 12:36 35.48430 139.74160 6297 ft 259 kts 302°
2026-05-07 12:36 35.49495 139.72324 7016 ft 267 kts 302°
2026-05-07 12:37 35.50569 139.70475 7910 ft 270 kts 302°
2026-05-07 12:37 35.51670 139.68601 8865 ft 273 kts 302°
2026-05-07 12:37 35.52798 139.66698 9813 ft 277 kts 302°
2026-05-07 12:37 35.53816 139.64704 10501 ft 285 kts 292°
2026-05-07 12:38 35.54556 139.62359 10899 ft 304 kts 285°
2026-05-07 12:38 35.55209 139.59807 11274 ft 323 kts 284°
2026-05-07 12:38 35.55864 139.57130 11713 ft 338 kts 283°
2026-05-07 12:38 35.56546 139.54321 12385 ft 346 kts 283°
2026-05-07 12:39 35.57236 139.51471 13135 ft 351 kts 283°
2026-05-07 12:39 35.57934 139.48572 13795 ft 356 kts 283°
2026-05-07 12:39 35.58640 139.45635 14455 ft 360 kts 283°
2026-05-07 12:39 35.59351 139.42666 15087 ft 364 kts 283°
2026-05-07 12:40 35.60071 139.39662 15701 ft 368 kts 284°
2026-05-07 12:40 35.60796 139.36631 16343 ft 371 kts 284°
2026-05-07 12:40 35.61516 139.33616 16957 ft 375 kts 284°
2026-05-07 12:40 35.62253 139.30522 17583 ft 378 kts 284°
2026-05-07 12:41 35.62997 139.27399 18207 ft 382 kts 284°
2026-05-07 12:41 35.63747 139.24249 18780 ft 386 kts 284°
2026-05-07 12:41 35.64503 139.21063 19344 ft 389 kts 284°
2026-05-07 12:41 35.65265 139.17847 19896 ft 394 kts 284°
2026-05-07 12:42 35.65926 139.14567 20491 ft 395 kts 277°
2026-05-07 12:42 35.66154 139.11206 21127 ft 396 kts 269°
2026-05-07 12:42 35.66130 139.07807 21700 ft 399 kts 266°
2026-05-07 12:42 35.65989 139.04381 22307 ft 402 kts 264°
2026-05-07 12:43 35.65798 139.00945 22955 ft 405 kts 264°
2026-05-07 12:43 35.65597 138.97474 23569 ft 409 kts 264°
2026-05-07 12:43 35.65402 138.93972 24086 ft 412 kts 264°
2026-05-07 12:43 35.65215 138.90451 24612 ft 415 kts 264°
2026-05-07 12:44 35.65040 138.86895 25140 ft 418 kts 264°
2026-05-07 12:44 35.64872 138.83297 25598 ft 423 kts 264°
2026-05-07 12:44 35.64707 138.79678 26184 ft 425 kts 264°
2026-05-07 12:44 35.64545 138.76087 26769 ft 427 kts 264°
2026-05-07 12:45 35.64379 138.72438 27373 ft 428 kts 264°
2026-05-07 12:45 35.64209 138.68767 27858 ft 432 kts 264°
2026-05-07 12:45 35.64035 138.65049 28356 ft 436 kts 264°
2026-05-07 12:45 35.63850 138.61323 28873 ft 439 kts 264°
2026-05-07 12:46 35.63653 138.57562 29387 ft 442 kts 264°
2026-05-07 12:46 35.63450 138.53777 29848 ft 445 kts 263°
2026-05-07 12:46 35.63244 138.49974 30265 ft 448 kts 263°
2026-05-07 12:46 35.63038 138.46135 30649 ft 451 kts 264°
2026-05-07 12:47 35.62831 138.42282 31043 ft 453 kts 264°
2026-05-07 12:47 35.62623 138.38412 31476 ft 454 kts 264°
2026-05-07 12:47 35.62414 138.34522 31824 ft 457 kts 264°
2026-05-07 12:47 35.62203 138.30617 32213 ft 459 kts 264°
2026-05-07 12:48 35.61988 138.26689 32585 ft 461 kts 263°
2026-05-07 12:48 35.61774 138.22757 32986 ft 461 kts 263°
2026-05-07 12:48 35.61560 138.18870 33461 ft 460 kts 263°
2026-05-07 12:48 35.61344 138.14959 33975 ft 458 kts 263°
2026-05-07 12:49 35.61127 138.11063 34407 ft 456 kts 263°
2026-05-07 12:49 35.60908 138.07161 34758 ft 456 kts 263°
2026-05-07 12:49 35.60689 138.03275 35148 ft 455 kts 263°
2026-05-07 12:49 35.60469 137.99390 35496 ft 455 kts 263°
2026-05-07 12:50 35.60249 137.95537 35726 ft 457 kts 263°
2026-05-07 12:50 35.60026 137.91653 36089 ft 455 kts 263°
2026-05-07 12:50 35.59801 137.87770 36447 ft 454 kts 263°
2026-05-07 12:50 35.59576 137.83902 36779 ft 453 kts 263°
2026-05-07 12:51 35.59348 137.80042 37109 ft 453 kts 263°
2026-05-07 12:51 35.59109 137.76180 37433 ft 452 kts 263°
2026-05-07 12:51 35.58835 137.72327 37805 ft 450 kts 262°
2026-05-07 12:51 35.58545 137.68510 38160 ft 449 kts 262°
2026-05-07 12:52 35.58249 137.64696 38453 ft 448 kts 262°
2026-05-07 12:52 35.57955 137.60883 38740 ft 448 kts 262°
2026-05-07 12:52 35.57663 137.57079 38986 ft 447 kts 262°
2026-05-07 12:52 35.57274 137.53348 39200 ft 445 kts 257°
2026-05-07 12:53 35.56649 137.49893 39416 ft 443 kts 255°
2026-05-07 12:53 35.55901 137.46224 39627 ft 442 kts 254°
2026-05-07 12:53 35.55119 137.42571 39863 ft 442 kts 253°
2026-05-07 12:53 35.54320 137.38931 39976 ft 443 kts 253°
2026-05-07 12:54 35.52700 137.31632 39976 ft 442 kts 253°
2026-05-07 12:54 35.51084 137.24349 39963 ft 442 kts 253°
2026-05-07 12:55 35.49468 137.17066 39957 ft 442 kts 253°
2026-05-07 12:55 35.47853 137.09772 39953 ft 443 kts 253°